{"data":{"norad_id":38552,"epoch":"2026-09-20T01:31:32.103264Z","epoch_age_seconds":51965,"freshness":"FRESH","line1":"1 38552U 12035B   26263.06356601 -.00000009  00000+0  00000+0 0  9998","line2":"2 38552   4.8912  60.4816 0000923 101.5165 219.9177  1.00272682 51805","mean_motion":1.00272682,"eccentricity":9.23e-5,"inclination_deg":4.8912,"raan_deg":60.4816,"arg_perigee_deg":101.5165,"mean_anomaly_deg":219.9177,"bstar":0,"rev_number":5180,"period_min":1436.084057271,"perigee_km":35782.451719853,"apogee_km":35790.235282953,"semimajor_km":42164.480501403,"source":"CELESTRAK","updated_at":"2026-09-20T09:00:35.175714Z"}}